SCP
0 0 0 0 0 0 0 0 0 0 0 0 0 0 0 0 0 0 0 0 0 0 0 1 1 1 1 1 1 1 1 1 1 1 1 1 0 0 0 0 0 1 1 1 1 1 0 1 1
0 0 0 0 0 0 0 0 0 0 0 0 0 0 0 0 0 0 0 0 1 0 0 1 1 1 1 1 1 1 1 1 1 1 1 1 0 0 1 0 1 1 1 1 0 0 0 1 1
0 0 0 0 0 0 0 0 0 0 0 0 0 0 0 0 0 0 0 1 1 1 0 0 1 1 1 1 1 1 1 0 0 1 1 1 0 1 1 1 1 1 1 0 0 0 0 0 0
0 0 0 0 0 0 0 0 0 0 0 0 0 0 0 0 0 0 1 1 1 1 0 0 1 1 1 1 1 1 1 0 0 0 0 0 0 0 0 0 1 1 1 0 0 0 0 0 0
0 0 0 0 0 0 0 0 0 0 0 0 0 0 0 0 0 0 1 1 1 1 0 0 1 1 1 1 1 1 0 0 0 0 0 0 0 0 0 0 0 0 0 0 0 0 0 0 0
0 0 0 0 0 0 0 0 0 0 0 0 0 0 0 0 0 1 1 1 1 1 1 0 1 1 1 1 1 1 0 0 0 0 0 0 0 0 0 0 0 0 0 0 0 0 0 0 0
0 0 0 0 0 0 0 0 0 0 0 0 0 0 0 0 1 1 1 1 1 1 1 1 1 1 0 0 0 0 0 0 0 0 0 0 0 0 0 0 0 0 0 0 0 0 0 0 0
0 0 0 0 0 0 0 0 0 0 0 0 0 0 0 0 1 1 1 1 1 1 1 1 0 0 0 0 0 0 0 0 0 0 0 0 0 0 0 0 0 0 0 0 0 0 0 0 0
0 0 0 0 0 0 0 0 0 0 0 0 0 0 0 1 1 1 1 1 1 1 1 1 0 0 0 0 0 0 0 0 0 0 0 0 0 0 0 0 1 1 0 0 0 0 0 0 0
0 0 0 0 0 0 0 0 0 0 0 0 0 0 1 1 1 1 1 1 1 1 0 0 0 0 0 0 0 0 0 0 0 0 0 0 0 0 0 0 1 1 0 0 0 0 0 0 0
0 0 0 0 0 0 0 0 0 0 0 0 0 0 1 1 1 1 1 1 1 1 1 1 1 1 0 0 0 0 0 0 0 0 0 0 0 0 0 0 0 0 0 0 0 0 0 0 0
0 0 0 0 0 0 0 0 0 0 0 0 0 1 1 1 1 1 1 1 1 1 1 1 1 1 1 0 0 0 0 0 0 0 0 0 0 0 0 0 0 0 0 0 0 0 0 0 0
0 0 0 0 0 0 1 0 0 0 0 0 0 1 1 1 1 1 1 1 1 1 1 1 1 1 1 1 0 0 0 0 0 0 0 0 0 0 0 0 0 0 0 0 0 0 0 0 0
0 0 0 0 0 0 0 0 0 0 0 0 0 1 1 1 1 1 1 1 1 1 1 1 1 1 1 1 0 0 0 0 0 0 0 0 0 0 0 0 0 0 0 0 0 0 0 0 0
0 0 0 0 0 0 0 0 0 0 0 0 0 0 1 1 1 1 1 1 1 1 1 1 1 1 1 0 0 0 0 0 0 0 0 0 0 0 0 0 0 0 0 0 0 0 0 0 0
0 0 0 0 0 0 0 0 0 0 0 0 0 0 0 0 0 0 1 1 1 1 1 1 1 1 0 0 0 0 0 0 0 0 0 0 0 0 0 0 0 0 0 0 0 0 0 0 0
0 0 0 0 0 0 0 0 0 0 0 0 0 0 0 0 0 0 1 1 1 1 1 1 1 1 0 0 0 0 0 0 0 0 0 0 0 0 0 0 0 0 0 0 0 0 0 0 0
0 0 0 0 0 0 0 0 0 0 0 0 0 0 0 0 0 0 1 1 1 1 1 1 1 1 0 0 0 0 0 0 0 0 0 0 0 0 0 0 0 0 0 0 0 0 0 0 0
0 0 0 0 0 0 0 0 0 0 0 0 0 0 0 0 0 0 0 1 1 1 1 1 1 1 0 0 0 0 0 0 0 0 0 0 0 0 0 0 0 0 0 0 0 0 0 0 0
0 0 0 0 0 0 0 0 0 0 0 0 0 0 0 0 0 0 0 1 1 1 2 1 1 1 1 0 0 0 0 0 0 0 0 0 0 0 0 0 0 0 0 0 0 0 0 0 0
0 0 0 0 0 0 0 0 0 0 0 0 0 0 0 0 0 0 0 1 1 2 2 2 1 1 1 1 1 1 0 0 0 0 0 0 0 0 0 0 0 0 0 0 0 0 0 0 0
0 0 0 0 0 0 0 0 0 0 0 0 0 0 0 0 1 1 1 1 1 2 2 2 2 1 1 1 1 1 1 0 0 0 0 0 0 0 0 0 0 0 0 0 0 0 0 0 0
0 0 0 0 0 0 0 0 0 0 0 0 0 0 0 0 1 1 1 1 1 2 2 2 2 2 1 1 1 1 1 0 0 0 0 0 0 0 0 0 0 0 0 0 0 0 0 0 0
0 0 0 0 0 0 0 0 0 0 0 0 0 0 0 0 0 1 1 1 2 2 3 3 2 1 1 1 1 1 1 0 0 0 0 0 0 0 0 0 0 0 0 0 0 0 0 0 0
0 0 0 0 0 0 0 0 0 0 0 0 0 0 0 0 0 0 1 1 2 2 3 2 2 2 2 2 1 1 1 1 0 0 0 0 0 0 0 0 0 0 0 0 0 0 0 0 0
0 0 0 0 0 0 0 0 0 0 0 0 0 0 0 0 0 0 1 1 2 3 3 2 2 2 2 2 2 1 1 1 0 0 0 0 0 0 0 0 0 0 0 0 0 0 0 0 0
0 0 0 0 0 0 0 0 0 0 0 0 0 0 0 0 0 0 1 1 2 3 3 2 2 2 2 2 2 1 1 1 1 0 0 0 0 0 0 0 0 0 0 0 0 0 0 0 0
0 0 0 0 0 0 0 0 0 0 0 0 0 0 0 0 0 0 1 1 2 2 3 2 2 2 2 2 1 1 1 1 1 0 0 0 0 1 1 0 0 0 0 0 0 0 0 0 0
0 0 0 0 0 0 0 0 0 0 0 0 0 0 0 0 0 0 1 1 1 2 2 2 2 1 1 1 1 1 1 1 1 0 0 0 1 1 1 1 0 0 0 0 0 0 0 0 0
0 0 0 0 0 0 0 0 0 0 0 0 0 0 0 0 0 0 1 1 1 1 2 2 2 1 1 1 1 1 1 1 0 0 0 0 1 1 1 1 1 0 0 0 0 0 0 0 0
Wind_Speed
2 3 3 4 7 6 3 2 1 1 2 2 3 6 6 4 2 2 1 2 2 1 1 2 5 6 7 8 9 9 10 10 10 10 11 11 11 11 11 11 11 11 11 11 11 11 11 10 10
1 2 5 6 6 4 2 2 1 0 3 4 4 5 5 3 2 3 0 2 3 2 2 2 5 7 8 8 9 9 9 9 10 10 10 11 11 11 11 11 11 11 11 10 10 11 10 10 10
2 4 5 5 4 3 2 1 1 2 3 2 4 4 3 2 2 2 2 3 3 3 2 2 5 7 8 8 8 8 9 9 9 9 9 10 10 10 10 10 10 10 10 10 10 10 10 10 9
3 5 6 6 3 1 3 2 2 3 3 4 4 4 3 2 2 3 4 5 4 2 2 3 5 7 7 8 8 8 8 9 9 9 9 10 10 10 10 10 10 10 10 10 10 10 10 9 9
5 5 6 4 1 1 1 1 2 3 2 2 3 4 2 3 3 5 5 5 4 2 2 2 5 6 7 7 8 8 8 9 9 8 9 9 9 9 10 10 10 10 10 10 9 9 9 9 9
5 5 5 2 1 1 1 1 2 3 3 3 4 4 1 1 4 4 4 4 3 3 2 2 4 5 6 6 7 8 8 8 8 8 8 9 9 9 9 9 9 9 9 9 9 9 9 10 9
5 5 3 2 0 1 1 2 3 3 3 3 5 5 1 1 3 4 4 4 3 3 3 3 3 3 5 6 7 7 7 7 8 8 8 8 8 8 8 9 9 9 9 9 10 10 10 10 10
5 5 3 1 2 1 1 2 1 3 3 3 4 6 5 4 4 5 5 4 3 3 3 2 3 3 3 3 5 6 6 7 7 7 8 8 8 8 8 8 8 9 9 10 10 10 10 11 11
4 6 2 3 3 2 1 2 1 2 4 2 1 3 4 8 8 6 4 3 2 2 1 1 2 2 2 2 4 4 5 6 6 6 8 7 4 5 5 7 9 9 10 10 10 11 11 11 10
5 4 3 3 4 3 1 2 3 3 3 2 2 3 6 8 8 7 5 4 3 2 1 1 1 1 2 2 3 2 3 3 3 3 4 3 3 4 5 7 9 10 10 10 11 11 10 8 5
3 4 2 1 2 3 3 2 2 6 2 4 6 7 8 7 6 6 5 4 4 3 2 2 1 1 1 1 2 2 2 2 3 3 3 3 3 3 4 3 4 5 7 5 6 6 5 5 4
3 1 2 1 1 3 3 3 3 3 4 4 7 10 9 9 7 7 6 5 3 3 3 2 2 1 1 1 1 1 1 1 2 2 3 2 2 2 2 2 2 3 2 3 3 3 4 5 5
2 1 1 1 2 2 4 2 2 1 1 4 7 8 8 8 6 5 4 3 3 4 3 3 2 2 2 1 1 2 1 1 1 2 2 2 2 2 2 2 2 3 2 2 3 3 4 4 5
1 1 1 1 1 1 3 1 2 2 3 6 7 7 7 7 6 4 4 4 4 4 4 3 3 3 2 2 1 1 1 1 1 1 1 2 2 2 2 2 2 2 2 2 2 3 3 3 3
2 2 3 2 1 0 3 2 2 2 5 6 5 5 5 4 5 5 6 5 5 5 4 4 4 3 3 2 2 1 1 1 1 1 1 2 2 2 2 2 2 2 2 2 3 3 3 3 3
3 3 2 3 0 0 4 3 4 3 6 6 5 4 4 4 5 5 5 5 5 4 4 4 4 4 3 2 2 1 1 1 1 1 1 1 2 2 2 2 2 2 2 2 2 3 3 3 3
3 1 2 4 1 2 3 4 3 3 6 6 6 5 5 4 4 4 5 5 5 5 5 4 3 4 3 2 2 2 2 1 1 1 1 1 2 2 2 2 1 2 2 2 2 3 2 2 3
2 1 2 3 2 2 2 4 4 3 5 6 6 5 5 6 7 5 5 4 4 4 4 4 4 3 3 2 2 2 2 1 1 1 1 1 2 2 2 2 2 2 2 2 2 3 3 2 2
3 2 2 3 2 2 3 5 6 3 4 5 5 5 6 7 5 3 3 4 3 3 3 4 4 4 3 2 2 1 0 0 0 0 1 1 2 2 2 2 2 2 2 2 2 2 3 2 2
3 2 2 3 1 2 2 5 5 3 5 6 7 8 8 6 3 3 3 4 5 5 5 5 4 4 4 3 2 2 2 1 0 0 1 1 2 2 2 3 2 2 2 2 2 2 2 1 2
2 3 3 3 2 2 1 5 4 3 1 2 3 5 6 8 7 6 5 5 5 6 6 6 5 4 4 3 2 2 2 2 1 1 0 0 1 1 2 3 3 2 2 2 1 2 2 1 1
3 3 4 2 1 2 1 3 6 4 3 2 2 2 4 5 5 6 6 5 6 7 5 5 5 5 4 4 4 4 3 2 3 1 1 0 0 1 2 2 3 2 2 2 1 2 1 2 1
3 1 2 2 2 1 2 0 7 3 3 4 4 3 4 4 5 5 6 7 6 5 5 4 4 4 4 4 5 4 2 2 1 1 1 0 0 1 1 2 2 2 2 2 2 2 1 2 2
3 5 4 4 4 1 2 2 5 3 4 4 3 3 3 2 3 3 4 4 3 3 4 4 4 4 4 4 4 4 4 3 2 1 1 1 1 1 1 2 2 2 2 2 2 2 2 1 2
4 5 4 4 3 4 2 2 6 4 3 2 3 4 3 2 2 2 2 3 4 5 5 5 5 5 4 5 4 5 5 5 4 4 3 2 1 1 2 2 2 2 2 2 2 2 2 2 2
2 6 6 3 3 4 2 3 6 3 2 2 2 2 2 1 1 2 3 4 4 5 5 5 6 5 5 5 5 5 5 4 4 4 3 4 3 3 3 3 3 3 3 2 2 2 2 1 2
4 2 4 5 1 1 3 4 6 2 4 4 4 3 3 2 1 2 2 2 3 4 5 6 6 5 5 6 5 5 5 4 4 4 4 3 3 3 3 3 3 3 3 3 3 2 2 2 2
4 6 4 4 2 2 4 3 4 4 5 5 5 5 4 3 1 1 1 2 2 3 3 3 4 5 4 4 4 4 4 5 4 3 4 4 4 3 4 4 3 3 3 3 3 2 2 2 2
3 3 4 3 3 4 3 5 2 2 2 3 4 4 5 3 2 1 1 1 1 1 1 2 2 2 3 3 3 3 3 3 3 3 4 4 3 4 4 4 4 4 3 3 3 3 2 3 2
3 4 6 4 2 3 2 6 2 1 2 2 3 4 4 3 2 1 1 1 1 1 1 1 1 2 3 3 3 3 3 3 3 4 3 3 3 4 4 4 4 4 4 3 4 4 3 3 3
Wind_Direction
26 69 75 56 54 52 49 344 326 30 52 44 60 82 95 89 96 132 262 159 145 118 69 83 87 87 84 84 85 82 79 79 78 77 75 73 73 72 72 74 74 73 72 69 68 70 71 71 73
59 78 54 57 75 69 346 322 22 133 143 132 74 74 76 70 72 106 136 169 128 110 80 89 91 90 87 87 88 85 82 79 78 75 73 72 70 70 69 72 73 73 73 71 68 67 67 67 69
79 57 73 66 84 142 174 252 152 77 103 102 78 62 84 96 120 158 193 149 112 93 73 89 94 91 88 89 89 87 83 79 77 74 72 71 70 68 67 69 70 70 69 68 68 65 64 64 65
78 48 55 68 81 207 186 195 153 115 78 60 94 71 59 41 151 157 140 128 112 91 70 83 92 91 90 91 92 87 83 80 78 75 73 72 70 67 64 65 68 67 66 67 66 64 62 58 60
61 71 61 53 18 317 251 208 155 112 90 67 95 95 48 4 97 118 126 124 121 102 71 74 91 91 89 89 89 86 82 80 80 76 73 74 72 69 67 64 64 64 64 63 64 63 60 59 56
57 64 79 82 346 343 335 173 132 102 107 109 109 109 80 63 117 130 123 118 115 104 77 64 90 93 88 90 89 88 83 81 78 75 73 71 70 68 66 64 63 61 59 60 60 60 58 55 52
96 88 112 138 127 341 196 127 133 128 127 156 136 114 128 160 154 129 111 104 93 82 73 50 49 67 78 85 89 86 84 81 77 72 71 69 66 64 63 63 63 62 60 58 58 58 57 56 54
114 98 91 122 148 227 176 129 138 133 137 125 125 140 179 187 144 110 94 87 81 70 65 57 45 48 49 59 81 85 84 81 75 69 68 67 60 54 54 53 56 59 61 58 56 56 56 56 57
86 80 133 189 177 213 165 121 89 89 103 95 113 162 170 136 125 113 99 82 94 103 59 60 53 52 52 49 64 65 71 70 65 59 62 59 44 39 42 48 55 57 58 57 53 55 54 53 52
83 115 200 203 180 175 156 137 143 102 93 88 72 79 114 128 138 143 150 157 166 175 184 125 93 70 57 55 53 41 47 50 51 50 53 52 47 41 46 45 52 53 54 54 53 52 50 46 38
110 156 197 208 182 150 131 120 121 126 171 200 174 153 139 141 152 162 168 173 183 182 178 170 158 105 78 60 62 47 44 47 47 50 55 56 50 42 41 38 36 39 45 43 44 44 40 42 40
112 154 151 158 124 125 137 132 120 159 219 207 167 152 149 157 171 179 180 183 175 168 185 177 161 133 105 90 78 74 61 56 51 49 61 64 56 47 44 47 40 40 39 42 41 45 41 43 41
113 147 113 122 91 107 105 120 152 251 318 111 127 138 155 169 180 187 185 178 170 177 187 173 154 148 134 103 93 92 74 69 66 56 59 77 82 67 56 51 49 46 43 48 48 50 46 40 36
162 116 46 38 87 76 111 94 112 265 109 116 137 157 172 179 181 176 174 182 185 188 187 170 158 155 136 120 115 105 90 74 66 59 60 76 88 85 74 60 54 49 45 48 57 55 54 42 40
87 67 19 10 77 118 107 23 242 205 128 138 161 170 176 189 183 186 189 187 188 189 183 173 168 154 144 142 143 118 101 90 73 55 65 77 89 96 92 80 61 46 50 58 60 53 51 51 47
64 55 348 309 38 127 127 249 264 154 148 169 183 184 186 197 198 199 192 186 181 174 174 180 168 155 155 150 136 120 107 99 85 71 76 85 97 102 97 87 67 48 57 61 67 57 59 48 45
43 74 269 305 320 123 149 239 268 165 167 189 197 199 197 202 214 209 196 188 178 175 173 167 157 156 157 141 123 109 98 89 76 71 75 85 99 100 102 94 76 64 65 59 67 58 63 63 49
214 209 247 260 277 124 173 249 271 195 186 204 206 206 207 207 219 208 196 184 172 170 164 162 153 148 138 120 92 74 64 52 54 78 113 112 107 108 107 99 85 80 78 62 65 74 54 61 53
170 180 237 254 240 162 224 255 265 231 206 218 217 214 218 224 227 202 186 174 161 159 160 166 163 160 145 143 140 126 131 35 25 18 125 124 122 120 118 109 95 89 93 94 95 91 71 47 32
169 185 257 290 275 176 248 282 277 225 209 214 214 213 217 224 219 202 184 173 177 178 181 177 178 174 172 175 164 148 139 159 206 318 60 118 136 138 139 131 124 116 105 92 89 90 88 47 37
206 196 218 232 359 30 353 318 317 305 264 249 232 220 214 209 210 206 194 191 186 190 193 190 188 181 178 154 118 95 75 52 33 355 327 273 164 153 144 144 135 133 131 136 134 119 120 117 33
241 232 196 175 95 304 37 301 302 300 319 305 273 238 226 222 215 206 197 196 200 203 196 191 186 178 173 158 154 154 161 186 212 206 219 245 192 175 152 146 140 143 138 143 166 140 127 125 114
211 116 123 128 147 33 14 186 294 329 326 302 283 258 245 227 214 211 206 206 205 195 187 190 185 178 174 173 173 171 175 195 186 151 169 213 252 194 160 151 146 149 152 161 161 137 129 129 139
123 77 59 49 68 357 261 177 289 282 258 292 307 298 270 239 212 215 211 196 187 176 175 175 179 184 178 182 182 182 182 176 161 188 197 213 236 244 192 157 162 164 161 167 168 156 146 144 138
77 80 32 5 10 264 267 175 253 262 259 265 291 302 288 247 211 212 196 182 185 182 184 185 185 197 191 189 197 198 194 186 192 198 201 199 203 220 221 189 180 176 178 169 153 151 165 167 162
138 133 150 194 230 280 324 234 253 264 302 304 304 317 324 278 223 216 208 194 191 193 191 190 197 205 199 198 208 207 201 198 208 205 199 204 209 212 207 196 190 185 175 169 156 153 177 168 177
130 148 154 132 169 276 279 289 304 330 356 7 6 5 346 298 250 234 222 199 188 190 197 197 201 207 206 207 210 209 204 204 211 209 202 207 210 203 193 192 190 189 178 171 160 171 189 171 182
119 138 99 114 159 262 288 273 264 313 329 344 350 339 326 320 302 276 233 218 204 201 199 186 195 205 211 210 212 214 210 211 213 206 210 209 206 196 184 187 187 185 183 180 170 179 191 176 195
86 92 103 116 155 168 250 271 241 239 290 314 318 321 324 319 305 301 301 263 190 144 146 174 191 201 214 212 212 206 207 203 205 213 219 214 202 193 192 191 188 190 191 184 177 187 185 193 209
142 149 142 149 220 185 197 263 309 330 316 331 329 331 340 342 346 360 3 24 61 85 139 185 195 218 228 215 207 212 211 204 208 218 222 217 210 201 199 192 189 195 194 189 189 195 194 198 208